Stations météo

réclame
Mon MeteoGroup
Tholey, Allemagne (10706): Température de l'air & dewpoint: 13.01.2018 18:00:00 - 19.01.2018 18:00:00 (CET)Tholey, Allemagne (10706): Température de l'air 5cm & Température de l'air -5cm: 13.01.2018 18:00:00 - 19.01.2018 18:00:00 (CET)Tholey, Allemagne (10706): Température de l'air -20cm & Température de l'air -100cm: 13.01.2018 18:00:00 - 19.01.2018 18:00:00 (CET)Tholey, Allemagne (10706): Vitesse du vent & gusts: 13.01.2018 18:00:00 - 19.01.2018 18:00:00 (CET)Tholey, Allemagne (10706): Direction du vent: 13.01.2018 18:00:00 - 19.01.2018 18:00:00 (CET)Tholey, Allemagne (10706): reduced air pressure: 13.01.2018 18:00:00 - 19.01.2018 18:00:00 (CET)Tholey, Allemagne (10706): visibility: 13.01.2018 18:00:00 - 19.01.2018 18:00:00 (CET)Tholey, Allemagne (10706): Ensoleillement: 13.01.2018 18:00:00 - 19.01.2018 18:00:00 (CET)Tholey, Allemagne (10706): Quantités de précipitations: 13.01.2018 18:00:00 - 19.01.2018 18:00:00 (CET)
Date & Time tt [°C] td [°C] tt 5cm [°C] tt -5cm [°C] tt -20cm [°C] tt -100cm [°C] ff [km/h] ff [knt] fx [km/h] fx [knt] dd ppp [hPa] vv [km] sd [min] rr [mm]
19.01.2018 18:00:00 1,2 0,6 1,2 2,9 3,4 6,1 13 7 24 13 WSW 1012,0 12 0 0,0
19.01.2018 17:00:00 2,6 0,1 2,4 3,2 3,3 6,1 16 8 22 12 WSW 1011,7 70 0 0,0
19.01.2018 16:00:00 3,1 -0,1 3,0 3,6 3,3 6,1 15 8 27 14 W 1011,8 70 0 0,0
19.01.2018 15:00:00 3,2 0,3 3,3 3,6 3,2 6,1 17 9 38 21 WSW 1011,4 58 0 0,0
19.01.2018 14:00:00 3,5 -0,2 3,8 3,6 3,1 6,2 19 10 38 21 W 1011,7 56 20 0,0
19.01.2018 13:00:00 3,1 0,0 3,8 3,1 3,0 6,2 23 12 45 24 W 1012,4 40 13 0,0
19.01.2018 12:00:00 2,4 0,7 2,6 2,7 3,0 6,2 27 15 39 21 W 1012,9 37 3 0,1
19.01.2018 11:00:00 2,2 0,0 2,3 2,7 3,0 6,2 24 13 35 19 WSW 1012,9 33 23 0,0
19.01.2018 10:00:00 2,0 -0,1 2,0 2,1 3,0 6,2 23 12 32 18 W 1012,4 67 19 0,0
19.01.2018 09:00:00 1,8 -0,2 1,3 1,7 3,1 6,2 17 9 40 22 W 1011,7 70 0 0,0
19.01.2018 08:00:00 2,1 -0,5 1,3 1,8 3,1 6,2 24 13 42 23 W 1010,8 70 0 0,0
19.01.2018 07:00:00 2,0 0,0 1,2 2,0 3,2 6,2 19 10 39 21 W 1009,6 56 0 0,0
19.01.2018 06:00:00 1,7 0,6 1,2 2,2 3,2 6,2 21 11 49 26 W 1008,8 19 0 0,2
19.01.2018 05:00:00 2,5 0,7 1,6 2,4 3,3 6,2 25 13 45 24 W 1008,0 70 0 0,7
19.01.2018 04:00:00 3,3 0,9 2,7 2,6 3,3 6,2 22 12 41 22 W 1007,4 70 0 0,0
19.01.2018 03:00:00 3,3 1,6 2,6 2,7 3,3 6,2 23 12 39 21 W 1006,7 64 0 0,0
19.01.2018 02:00:00 3,1 1,9 2,7 2,6 3,3 6,2 20 11 36 20 W 1006,3 70 0 0,0
19.01.2018 01:00:00 2,9 1,6 2,4 2,7 3,3 6,2 27 15 45 24 W 1005,6 70 0 0,1
19.01.2018 00:00:00 3,0 1,7 2,4 2,8 3,4 6,2 23 12 44 24 W 1005,5 35 0 0,8
18.01.2018 23:00:00 4,0 2,0 3,6 2,6 3,5 6,2 16 8 24 13 WSW 1004,6 22 0 0,0
18.01.2018 22:00:00 3,9 1,3 3,2 2,4 3,6 6,3 13 7 23 13 W 1005,1 37 0 0,0
18.01.2018 21:00:00 3,8 0,8 2,4 2,5 3,7 6,3 16 9 22 12 W 1005,2 39 0 0,0
18.01.2018 20:00:00 4,2 0,2 3,1 2,6 3,8 6,3 17 9 27 15 W 1005,2 62 0 0,0
18.01.2018 19:00:00 5,0 0,2 3,4 3,0 3,8 6,3 20 11 33 18 W 1004,8 64 0 0,0
18.01.2018 18:00:00 5,9 -0,8 4,6 3,7 3,7 6,3 25 13 42 23 W 1003,7 70 0 0,0
18.01.2018 17:00:00 6,6 -0,2 5,1 4,6 3,6 6,3 25 14 51 27 W 1003,4 69 50 0,0
18.01.2018 16:00:00 7,8 0,1 7,3 5,0 3,4 6,3 30 16 61 33 W 1002,4 29 60 0,0
18.01.2018 15:00:00 7,9 0,5 8,0 5,4 3,1 6,3 41 22 75 41 W 1001,7 33 27 0,0
18.01.2018 14:00:00 8,1 3,4 6,5 5,3 2,9 6,3 37 20 67 36 WNW 1001,2 28 6 0,2
18.01.2018 13:00:00 8,7 4,7 8,4 5,1 2,6 6,3 41 22 75 41 W 1001,0 65 21 0,1
18.01.2018 12:00:00 7,3 6,2 6,7 4,1 2,5 6,3 51 27 85 46 WSW 1000,2 70 0 1,5
18.01.2018 11:00:00 6,5 5,7 6,1 3,1 2,4 6,3 46 25 74 40 WSW 1001,0 70 0 0,3
18.01.2018 10:00:00 5,0 4,8 4,8 1,9 2,4 6,3 45 24 67 36 WSW 1001,2 26 0 0,9
18.01.2018 09:00:00 2,6 2,4 2,1 1,0 2,5 6,3 44 24 67 36 WSW 1002,1 10 0 0,7
18.01.2018 08:00:00 0,7 0,5 0,1 1,0 2,5 6,3 36 19 55 30 WSW 1003,4 4,6 0 1,2
18.01.2018 07:00:00 0,2 0,0 0,0 1,3 2,5 6,3 33 18 48 26 WSW 1004,6 1,8 0 1,9
18.01.2018 06:00:00 1,4 1,0 1,0 1,8 2,5 6,3 34 18 52 28 WSW 1005,5 4,7 0 1,7
18.01.2018 05:00:00 1,9 1,3 1,6 1,9 2,5 6,3 35 19 54 29 WSW 1007,2 7 0 1,1
18.01.2018 04:00:00 2,6 1,3 2,1 1,9 2,4 6,3 30 16 49 26 WSW 1008,8 12 0 0,0
18.01.2018 03:00:00 2,5 1,2 2,2 1,7 2,4 6,3 30 16 54 29 WSW 1010,2 24 0 0,0
18.01.2018 02:00:00 2,1 1,3 1,8 1,4 2,4 6,3 28 15 45 25 WSW 1011,7 20 0 0,3
18.01.2018 01:00:00 0,8 0,4 0,4 1,3 2,5 6,4 23 12 39 21 W 1012,7 3,4 0 0,3
18.01.2018 00:00:00 1,2 0,4 1,0 1,3 2,5 6,4 29 16 38 20 W 1013,0 24 0 0,1
17.01.2018 23:00:00 1,1 0,1 1,0 1,2 2,5 6,4 23 13 34 18 WSW 1013,3 20 0 0,0
17.01.2018 22:00:00 1,4 -0,1 1,0 1,2 2,6 6,4 21 11 44 24 W 1013,1 43 0 0,0
17.01.2018 21:00:00 1,8 -0,7 1,4 1,0 2,6 6,4 24 13 40 22 WSW 1012,8 37 0 0,0
17.01.2018 20:00:00 2,5 -1,1 1,9 1,0 2,7 6,4 25 14 44 24 W 1012,1 31 0 0,0
17.01.2018 19:00:00 2,5 -1,6 1,5 1,0 2,8 6,4 27 15 56 30 W 1011,8 41 0 0,0
17.01.2018 18:00:00 2,4 -1,5 1,0 1,2 2,8 6,4 29 16 48 26 W 1010,8 45 0 0,0
17.01.2018 17:00:00 1,4 -0,6 0,3 1,7 2,8 6,4 30 16 56 31 W 1010,0 52 0 0,0
17.01.2018 16:00:00 2,6 -1,3 2,3 2,1 2,7 6,4 31 17 67 36 W 1009,1 46 7 0,0
17.01.2018 15:00:00 1,8 -1,0 1,6 2,0 2,7 6,4 36 19 59 32 W 1008,6 22 0 0,0
17.01.2018 14:00:00 2,5 -2,2 2,3 2,1 2,7 6,4 33 18 60 32 W 1007,8 59 3 0,0
17.01.2018 13:00:00 2,3 -2,3 2,4 1,9 2,7 6,4 35 19 60 33 W 1007,0 38 14 0,0
17.01.2018 12:00:00 1,5 -2,4 1,4 1,5 2,7 6,4 32 17 54 29 W 1006,8 54 8 0,0
17.01.2018 11:00:00 0,7 -1,8 1,1 1,1 2,7 6,4 33 18 52 28 W 1005,9 35 41 0,0
17.01.2018 10:00:00 0,7 -2,0 0,3 0,8 2,8 6,4 25 14 45 25 W 1004,3 58 0 0,0
17.01.2018 09:00:00 0,8 -2,3 0,2 0,9 2,9 6,4 24 13 48 26 W 1002,9 70 0 0,0
17.01.2018 08:00:00 0,9 -2,5 0,2 1,0 3,0 6,4 34 19 58 31 W 1001,4 70 0 0,0
17.01.2018 07:00:00 0,9 -0,9 0,3 1,1 3,1 6,4 35 19 55 30 W 1000,2 70 0 0,0
17.01.2018 06:00:00 0,1 0,0 0,0 1,3 3,2 6,4 23 12 64 35 W 999,3 62 0 1,5
17.01.2018 05:00:00 1,3 0,0 0,6 1,6 3,3 6,4 30 16 46 25 W 998,5 70 0 0,2
17.01.2018 04:00:00 1,4 0,6 1,0 1,6 3,4 6,4 26 14 50 27 W 998,1 31 0 0,3
17.01.2018 03:00:00 2,4 1,0 1,6 1,5 3,5 6,4 28 15 40 22 W 997,1 49 0 1,5
17.01.2018 02:00:00 0,6 0,2 0,1 1,9 3,6 6,5 18 10 47 26 WNW 997,4 2,1 0 2,3
17.01.2018 01:00:00 1,2 0,6 1,1 2,3 3,6 6,5 21 11 32 17 W 997,8 8 0 1,9
17.01.2018 00:00:00 1,9 1,2 1,6 2,6 3,7 6,5 23 13 48 26 WSW 997,8 4,6 0 0,5
16.01.2018 23:00:00 2,8 2,1 2,6 2,6 3,7 6,5 26 14 38 21 WSW 998,5 16 0 0,0
16.01.2018 22:00:00 2,2 1,4 2,1 2,4 3,8 6,5 22 12 34 19 WSW 999,5 41 0 0,0
16.01.2018 21:00:00 1,7 0,8 1,6 2,4 3,9 6,5 19 10 40 21 W 999,8 70 0 0,0
16.01.2018 20:00:00 1,8 1,0 1,5 2,8 4,0 6,5 24 13 36 19 WSW 999,6 70 0 0,0
16.01.2018 19:00:00 1,9 0,8 1,6 3,2 4,1 6,5 25 14 55 30 W 999,7 70 0 0,3
16.01.2018 18:00:00 2,9 1,3 2,3 3,6 4,1 6,5 27 15 61 33 W 999,9 53 0 0,3
16.01.2018 17:00:00 4,5 1,1 3,8 4,0 4,1 6,5 31 17 54 29 W 999,3 70 0 0,0
16.01.2018 16:00:00 4,6 1,3 3,5 4,2 4,0 6,5 29 15 58 31 W 998,8 70 0 0,0
16.01.2018 15:00:00 4,6 1,6 3,5 4,4 4,0 6,5 29 16 55 30 W 998,8 55 0 0,4
16.01.2018 14:00:00 5,1 2,1 4,7 4,6 3,9 6,6 29 16 53 29 W 998,3 58 0 0,0
16.01.2018 13:00:00 5,3 2,5 5,4 4,5 3,8 6,6 36 19 59 32 W 998,2 70 11 0,0
16.01.2018 12:00:00 4,2 1,8 3,9 4,0 3,8 6,6 29 16 81 44 W 998,5 70 0 1,1
16.01.2018 11:00:00 5,2 4,2 4,8 4,2 3,8 6,6 43 23 72 39 W 997,3 3,9 0 0,9
16.01.2018 10:00:00 4,8 4,1 4,5 4,1 3,7 6,6 31 17 63 34 WSW 997,3 3,6 0 0,7
16.01.2018 09:00:00 3,7 2,9 3,4 3,9 3,7 6,6 23 13 52 28 W 997,5 11 0 2,5
16.01.2018 08:00:00 4,7 3,3 4,0 4,2 3,6 6,6 33 18 66 36 W 997,1 5 0 0,4
16.01.2018 07:00:00 5,3 4,5 4,9 4,2 3,5 6,6 36 19 56 30 W 996,4 70 0 0,6
16.01.2018 06:00:00 4,9 4,4 4,6 4,1 3,5 6,6 29 16 61 33 WSW 996,9 16 0 0,8
16.01.2018 05:00:00 5,1 4,5 4,8 4,0 3,4 6,6 27 15 56 31 WSW 997,6 32 0 0,9
16.01.2018 04:00:00 5,0 4,0 4,5 3,9 3,3 6,6 21 12 32 17 W 999,0 11 0 0,2
16.01.2018 03:00:00 4,6 3,5 4,1 3,9 3,2 6,6 23 13 50 27 WSW 999,6 57 0 0,2
16.01.2018 02:00:00 5,3 3,8 4,8 4,0 3,1 6,6 31 17 48 26 W 999,8 61 0 0,7
16.01.2018 01:00:00 5,4 5,1 5,2 3,8 3,0 6,6 27 14 55 30 W 999,7 6 0 1,7
16.01.2018 00:00:00 5,1 4,6 4,8 3,5 2,9 6,7 34 18 50 27 WSW 999,6 25 0 0,7
15.01.2018 23:00:00 4,8 4,2 4,4 3,2 2,8 6,7 41 22 58 32 WSW 999,8 15 0 1,1
15.01.2018 22:00:00 4,1 3,4 3,7 2,9 2,7 6,7 32 18 60 33 WSW 1000,5 8 0 1,2
15.01.2018 21:00:00 3,7 3,0 3,3 2,8 2,6 6,7 35 19 57 31 WSW 1001,7 4,8 0 1,8
15.01.2018 20:00:00 3,4 2,6 2,9 2,7 2,5 6,7 37 20 58 32 SW 1002,9 5 0 2,8
15.01.2018 19:00:00 3,6 2,7 3,1 2,6 2,3 6,7 32 17 56 31 SW 1003,7 3,9 0 1,9
15.01.2018 18:00:00 4,3 2,5 3,5 2,4 2,2 6,7 32 17 50 27 SW 1004,9 4,5 0 0,3
15.01.2018 17:00:00 4,4 2,5 3,5 2,0 2,1 6,7 27 15 47 25 SW 1006,4 7 0 0,1
15.01.2018 16:00:00 4,4 2,3 3,5 1,3 2,1 6,7 29 16 48 26 SW 1007,9 16 0 0,1
15.01.2018 15:00:00 4,9 1,4 4,4 0,5 2,1 6,7 22 12 40 22 SSW 1008,6 28 0 0,0
15.01.2018 14:00:00 4,5 1,4 4,2 0,4 2,1 6,7 23 12 38 20 SW 1011,7 17 2 0,0
15.01.2018 13:00:00 4,0 1,4 3,7 0,4 2,1 6,7 25 13 38 20 SW 1013,4 12 0 0,0
15.01.2018 12:00:00 2,4 0,6 2,2 0,4 2,1 6,7 10 5 16 8 SW 1015,0 8 0 0,0
15.01.2018 11:00:00 1,1 -0,6 0,9 0,4 2,2 6,7 5 3 8 5 WSW 1016,5 7 0 0,0
15.01.2018 10:00:00 0,4 -1,1 0,3 0,4 2,2 6,7 2 1 8 4 SW 1017,4 6 0 0,0
15.01.2018 09:00:00 0,0 -1,6 -0,1 0,4 2,2 6,8 4 2 9 5 SW 1018,3 6 0 0,0
15.01.2018 08:00:00 -0,8 -2,0 -0,8 0,4 2,3 6,8 4 2 5 3 NE 1018,6 4,8 0 0,0
15.01.2018 07:00:00 -0,9 -2,2 -1,0 0,4 2,3 6,8 3 2 6 3 NE 1019,0 4,8 0 0,0
15.01.2018 06:00:00 -1,0 -2,2 -1,9 0,4 2,4 6,8 5 3 9 5 NE 1019,3 5 0 0,0
15.01.2018 05:00:00 -1,0 -2,4 -1,8 0,4 2,4 6,8 7 4 10 5 ENE 1019,9 6 0 0,0
15.01.2018 04:00:00 -1,0 -2,5 -1,5 0,4 2,5 6,8 7 4 11 6 ENE 1020,6 7 0 0,0
15.01.2018 03:00:00 -0,8 -2,5 -1,0 0,4 2,5 6,8 7 4 11 6 ENE 1021,2 9 0 0,0
15.01.2018 02:00:00 -0,9 -2,8 -2,2 0,5 2,6 6,8 10 5 14 8 ENE 1021,3 11 0 0,0
15.01.2018 01:00:00 -0,9 -3,0 -2,4 0,5 2,7 6,8 10 5 14 8 ENE 1022,0 12 0 0,0
15.01.2018 00:00:00 -0,6 -2,8 -2,3 0,6 2,8 6,8 10 6 18 10 ENE 1022,3 13 0 0,0
14.01.2018 23:00:00 -0,5 -2,8 -1,6 0,6 2,9 6,8 15 8 20 11 NE 1022,3 13 0 0,0
14.01.2018 22:00:00 -0,1 -2,6 -1,2 0,7 2,9 6,8 15 8 20 11 ENE 1022,5 15 0 0,0
14.01.2018 21:00:00 -0,2 -2,4 -1,3 0,8 3,0 6,8 16 8 24 13 ENE 1022,4 12 0 0,0
14.01.2018 20:00:00 0,0 -2,1 -1,1 0,9 3,1 6,8 15 8 24 13 ENE 1022,5 12 0 0,0
14.01.2018 19:00:00 0,2 -1,9 -0,9 1,1 3,2 6,8 16 9 25 13 E 1022,2 12 0 0,0
14.01.2018 18:00:00 0,7 -1,7 -0,4 1,6 3,2 6,8 18 10 24 13 E 1022,0 12 0 0,0
14.01.2018 17:00:00 1,2 -1,4 0,7 2,3 3,2 6,8 16 8 24 13 E 1021,9 12 0 0,0
14.01.2018 16:00:00 1,6 -1,3 1,6 2,7 3,1 6,8 18 10 30 16 E 1021,5 13 2 0,0
14.01.2018 15:00:00 1,7 -1,3 2,1 2,8 3,0 6,8 21 11 29 16 E 1021,3 12 0 0,0
14.01.2018 14:00:00 1,7 -1,3 2,4 2,6 3,0 6,9 20 11 29 16 E 1021,3 11 0 0,0
14.01.2018 13:00:00 1,6 -1,3 2,1 2,4 2,9 6,9 21 11 31 17 E 1021,7 11 0 0,0
14.01.2018 12:00:00 1,6 -0,8 2,2 2,0 2,9 6,9 23 13 35 19 ESE 1021,8 10 0 0,0
14.01.2018 11:00:00 1,5 -1,0 1,8 1,6 2,9 6,9 23 13 36 19 E 1022,0 11 0 0,0
14.01.2018 10:00:00 1,5 -1,1 1,5 1,2 2,9 6,9 21 11 38 21 E 1021,8 11 0 0,0
14.01.2018 09:00:00 1,5 -0,9 1,2 0,9 3,0 6,9 26 14 41 22 E 1021,4 11 0 0,0
14.01.2018 08:00:00 1,4 -1,2 0,9 0,8 3,0 6,9 26 14 36 19 E 1021,1 12 0 0,0
14.01.2018 07:00:00 1,3 -0,8 1,0 0,8 3,1 6,9 22 12 32 17 E 1021,0 10 0 0,0
14.01.2018 06:00:00 1,2 -0,8 0,7 0,8 3,2 6,9 17 9 35 19 E 1021,1 9 0 0,0
14.01.2018 05:00:00 1,5 -0,8 0,7 0,8 3,3 6,9 23 12 35 19 E 1021,0 10 0 0,0
14.01.2018 04:00:00 1,4 -0,7 0,3 0,8 3,4 6,9 21 12 36 19 E 1021,1 9 0 0,0
14.01.2018 03:00:00 1,6 -0,5 0,4 0,8 3,6 6,9 21 11 33 18 E 1021,0 9 0 0,0
14.01.2018 02:00:00 1,7 -0,5 0,4 1,0 3,7 6,9 19 10 34 18 E 1021,1 9 0 0,0
14.01.2018 01:00:00 2,0 -0,6 0,6 1,3 3,8 6,9 19 10 31 17 E 1021,1 11 0 0,0
14.01.2018 00:00:00 2,4 -0,6 1,0 1,7 3,9 6,9 20 11 31 17 E 1021,3 12 0 0,0
13.01.2018 23:00:00 2,7 -0,6 1,4 2,2 4,0 6,9 21 11 27 15 E 1021,5 13 0 0,0
13.01.2018 22:00:00 3,1 -0,3 2,0 2,6 4,0 6,9 18 10 34 18 E 1021,4 13 0 0,0
13.01.2018 21:00:00 3,3 -0,1 2,9 2,7 4,1 6,9 26 14 40 22 E 1021,7 14 0 0,0
13.01.2018 20:00:00 3,3 -0,3 2,9 2,8 4,1 6,9 25 13 44 24 ESE 1021,9 15 0 0,0
13.01.2018 19:00:00 3,3 -0,4 2,9 2,9 4,1 6,9 24 13 38 21 ESE 1022,0 18 0 0,0
13.01.2018 18:00:00 3,3 -0,3 3,0 3,0 4,2 6,9 26 14 39 21 E 1022,3 16 0 0,0

tt = Température de l'air
td = dewpoint
tt 5cm = Température de l'air 5cm
tt -5cm = Température de l'air -5cm
tt -20cm = Température de l'air -20cm
tt -100cm = Température de l'air -100cm
ff = Vitesse du vent
fx = gusts
dd = Direction du vent
ppp = reduced air pressure
vv = visibility
sd = Ensoleillement
rr = Quantités de précipitations

stations d'obs. à proximité